Preview of NWS' New Version of Forecast
This preview is not operational and should not be used for support decisions.

Regional Weather Roundup (RWR)

Issued by National Weather Service (NWS)

                            
000
ASUS46 KPQR 171510
RWROR 

OREGON REGIONAL WEATHER ROUNDUP
NATIONAL WEATHER SERVICE PORTLAND OR
700 AM PST SUN FEB 17 2019

NOTE: "FAIR" INDICATES FEW OR NO CLOUDS BELOW 12,000 FEET WITH
NO SIGNIFICANT WEATHER AND/OR OBSTRUCTIONS TO VISIBILITY.

ORZ001>013-171600-
NORTHWEST OREGON

  
CITY           SKY/WX    TMP DP  RH WIND       PRES   REMARKS
ASTORIA        FOG       32  32 100 SE3       30.06R VSB 3/4          
TILLAMOOK      FOG       30  30 100 CALM      30.08R VSB 1/2          
NEWPORT        CLOUDY    34  32  93 E6        30.08S                  
PORTLAND       CLOUDY    37  34  89 CALM      30.08R                  
VANCOUVER WA   CLOUDY    37  34  89 CALM      30.08R                  
SCAPPOOSE      CLOUDY    37  33  85 CALM      30.08R                  
HILLSBORO      CLOUDY    34  33  96 CALM      30.07R FOG              
AURORA         CLOUDY    36  34  92 SW3       30.08R                  
MCMINNVILLE    CLOUDY    33  32  96 CALM      30.07R                  
SALEM          CLOUDY    35  31  85 SW6       30.06R                  
CORVALLIS      CLOUDY    31  30  96 S3        30.07R                  
EUGENE         CLOUDY    34  31  88 S6        30.06R                  
$$

ORZ021-028-171600-
SOUTHWEST OREGON

  
CITY           SKY/WX    TMP DP  RH WIND       PRES   REMARKS
NORTH BEND     MIX PCPN  36  36 100 SE7       30.09R                  
BROOKINGS      LGT RAIN  34  34 100 NE3       30.07R                  
ROSEBURG       CLOUDY    35  33  92 CALM      30.06R                  
SEXTON SUMMIT  LGT SNOW  24  22  91 CALM      29.90S FOG              
GRANTS PASS    FOG       30  30 100 CALM      30.06  VSB 1/4          
MEDFORD        PTCLDY    29  27  92 CALM      30.02R                  
$$

ORZ014>016-041-171600-
COLUMBIA GORGE

  
CITY           SKY/WX    TMP DP  RH WIND       PRES   REMARKS
TROUTDALE      LGT RAIN  37  33  85 CALM      30.08R                  
HOOD RIVER     PTCLDY    27  25  93 CALM      30.04R                  
THE DALLES     CLOUDY    25  21  85 SE3       30.06R                  
$$

ORZ029>031-041-044-049-050-061>064-502-503-505>511-171600-
EASTERN OREGON

  
CITY           SKY/WX    TMP DP  RH WIND       PRES   REMARKS
MADRAS         NOT AVBL                                               
REDMOND        CLEAR     21  17  84 CALM      29.92R                  
BEND           MOCLDY    23  19  86 CALM      29.91R                  
PRINEVILLE     CLEAR     16  14  93 CALM      29.92                   
KLAMATH FALLS  LGT SNOW  21  19  92 CALM      29.88R FOG              
LAKEVIEW       MOCLDY    10   7  87 N6        29.84S                  
HERMISTON      FOG       32  31  96 CALM      30.02R VSB 1/2          
PENDLETON      FOG       29  28  96 NW6       29.97R VSB 1/4          
JOHN DAY       LGT SNOW  27  26  96 CALM      29.88                   
MEACHAM        LGT SNOW  25  21  85 CALM      29.86R FOG              
LA GRANDE      PTCLDY    27  24  89 W3        29.92R                  
BAKER CITY     MOCLDY    24  21  88 W5        29.87S                  
BURNS          CLOUDY    19  15  84 SW6       29.85R                  
ROME             N/A     26  24  92 MISG      29.83S                  
ONTARIO        CLOUDY    33  29  85 W12       29.91S WCI  24          
$$